KQA254 HKJK-FMCZ

Flight info

Callsign KQA254
Flight time 2h 3m
Altitude 37000
Route ATUDU1D GABSO UL445 GEREN DCT DV UG661 VOHID DCT DZP
Aircraft B738/M-SDE2E3FGHIRWXY/LB1

Departure

Time 2026-04-26 15:44
Airport Jomo Kenyatta International Airport (HKJK)

Arrival

Time 2026-04-26 17:47
Airport Dzaoudzi Pamandzi International Airport (FMCZ)
Time Latitude Longitude Altitude Speed Heading
2026-04-26 15:05 -1.33383 36.91566 5323 ft 0 kts 143°
2026-04-26 15:32 -1.33364 36.91552 5321 ft 4 kts 144°
2026-04-26 15:32 -1.33335 36.91530 5313 ft 4 kts 144°
2026-04-26 15:32 -1.33318 36.91518 5323 ft 4 kts 130°
2026-04-26 15:33 -1.33309 36.91497 5323 ft 4 kts 72°
2026-04-26 15:33 -1.33321 36.91476 5317 ft 4 kts 54°
2026-04-26 15:33 -1.33326 36.91470 5317 ft 0 kts 54°
2026-04-26 15:38 -1.33325 36.91471 5323 ft 0 kts 54°
2026-04-26 15:39 -1.33320 36.91477 5323 ft 2 kts 54°
2026-04-26 15:39 -1.33309 36.91493 5317 ft 4 kts 54°
2026-04-26 15:39 -1.33292 36.91517 5316 ft 5 kts 54°
2026-04-26 15:39 -1.33277 36.91538 5321 ft 6 kts 54°
2026-04-26 15:40 -1.33242 36.91587 5323 ft 7 kts 54°
2026-04-26 15:40 -1.33205 36.91625 5324 ft 8 kts 38°
2026-04-26 15:40 -1.33159 36.91661 5317 ft 9 kts 38°
2026-04-26 15:40 -1.33115 36.91709 5324 ft 10 kts 55°
2026-04-26 15:41 -1.33069 36.91772 5324 ft 12 kts 54°
2026-04-26 15:41 -1.33005 36.91818 5333 ft 12 kts 353°
2026-04-26 15:41 -1.32935 36.91775 5337 ft 13 kts 324°
2026-04-26 15:41 -1.32854 36.91718 5336 ft 8 kts 324°
2026-04-26 15:42 -1.32845 36.91711 5335 ft 1 kts 324°
2026-04-26 15:42 -1.32837 36.91706 5335 ft 1 kts 324°
2026-04-26 15:42 -1.32819 36.91693 5335 ft 6 kts 324°
2026-04-26 15:42 -1.32764 36.91662 5335 ft 11 kts 357°
2026-04-26 15:43 -1.32682 36.91743 5336 ft 34 kts 54°
2026-04-26 15:43 -1.32411 36.92115 5319 ft 97 kts 54°
2026-04-26 15:43 -1.31214 36.93755 5400 ft 183 kts 55°
2026-04-26 15:44 -1.30452 36.94789 6011 ft 186 kts 55°
2026-04-26 15:44 -1.29746 36.97285 7213 ft 196 kts 87°
2026-04-26 15:44 -1.29661 36.98683 7598 ft 213 kts 87°
2026-04-26 15:45 -1.30847 37.01474 7933 ft 253 kts 149°
2026-04-26 15:45 -1.32532 37.02071 8206 ft 263 kts 163°
2026-04-26 15:46 -1.36139 37.03057 9144 ft 278 kts 163°
2026-04-26 15:46 -1.38063 37.03573 9565 ft 291 kts 164°
2026-04-26 15:46 -1.40036 37.04123 10224 ft 296 kts 163°
2026-04-26 15:46 -1.41365 37.04504 10567 ft 305 kts 163°
2026-04-26 15:47 -1.44231 37.05336 10800 ft 337 kts 162°
2026-04-26 15:47 -1.48957 37.06780 11198 ft 371 kts 162°
2026-04-26 15:47 -1.51460 37.07503 11715 ft 377 kts 163°
2026-04-26 15:48 -1.53989 37.08236 12322 ft 380 kts 163°
2026-04-26 15:48 -1.56543 37.08981 12919 ft 383 kts 163°
2026-04-26 15:48 -1.59109 37.09735 13490 ft 387 kts 162°
2026-04-26 15:48 -1.61705 37.10502 14045 ft 390 kts 162°
2026-04-26 15:49 -1.64318 37.11277 14551 ft 395 kts 162°
2026-04-26 15:49 -1.66966 37.12063 15099 ft 397 kts 162°
2026-04-26 15:49 -1.69623 37.12851 15633 ft 400 kts 162°
2026-04-26 15:49 -1.72305 37.13649 16128 ft 404 kts 162°
2026-04-26 15:50 -1.75016 37.14454 16620 ft 407 kts 162°
2026-04-26 15:50 -1.77743 37.15270 17062 ft 410 kts 162°
2026-04-26 15:50 -1.80442 37.16067 17434 ft 412 kts 162°
2026-04-26 15:50 -1.83204 37.16880 17756 ft 414 kts 162°
2026-04-26 15:51 -1.86024 37.17720 18088 ft 420 kts 162°
2026-04-26 15:51 -1.88808 37.18553 18579 ft 421 kts 162°
2026-04-26 15:51 -1.91620 37.19396 19030 ft 423 kts 162°
2026-04-26 15:51 -1.94415 37.20229 19418 ft 427 kts 162°
2026-04-26 15:52 -1.97279 37.21080 19799 ft 430 kts 162°
2026-04-26 15:52 -2.00154 37.21933 20170 ft 433 kts 162°
2026-04-26 15:52 -2.03053 37.22795 20524 ft 436 kts 162°
2026-04-26 15:52 -2.05015 37.23377 20759 ft 438 kts 162°
2026-04-26 15:53 -2.08908 37.24533 21255 ft 441 kts 162°
2026-04-26 15:53 -2.11861 37.25412 21608 ft 444 kts 162°
2026-04-26 15:53 -2.13864 37.26008 21826 ft 445 kts 162°
2026-04-26 15:53 -2.17788 37.27175 22238 ft 449 kts 162°
2026-04-26 15:54 -2.19834 37.27784 22441 ft 450 kts 162°
2026-04-26 15:54 -2.22813 37.28670 22732 ft 452 kts 162°
2026-04-26 15:54 -2.25878 37.29582 23038 ft 455 kts 162°
2026-04-26 15:54 -2.28875 37.30475 23313 ft 457 kts 162°
2026-04-26 15:55 -2.31968 37.31396 23571 ft 459 kts 162°
2026-04-26 15:55 -2.35032 37.32307 23837 ft 461 kts 162°
2026-04-26 15:55 -2.38123 37.33228 24104 ft 463 kts 162°
2026-04-26 15:55 -2.41211 37.34146 24350 ft 465 kts 162°
2026-04-26 15:56 -2.44320 37.35070 24601 ft 466 kts 162°
2026-04-26 15:56 -2.47424 37.35996 24847 ft 467 kts 162°
2026-04-26 15:56 -2.50504 37.36911 25001 ft 468 kts 162°
2026-04-26 15:56 -2.53625 37.37865 25172 ft 471 kts 159°
2026-04-26 15:57 -2.56634 37.39171 25401 ft 471 kts 149°
2026-04-26 15:57 -2.59440 37.40858 25681 ft 470 kts 147°
2026-04-26 15:57 -2.62193 37.42587 25927 ft 471 kts 146°
2026-04-26 15:57 -2.64071 37.43771 26058 ft 472 kts 147°
2026-04-26 15:58 -2.67778 37.46083 26337 ft 475 kts 147°
2026-04-26 15:58 -2.70589 37.47813 26548 ft 476 kts 147°
2026-04-26 15:58 -2.73427 37.49548 26730 ft 477 kts 147°
2026-04-26 15:58 -2.76263 37.51275 26916 ft 479 kts 147°
2026-04-26 15:59 -2.79118 37.53011 27097 ft 480 kts 147°
2026-04-26 15:59 -2.81957 37.54742 27293 ft 481 kts 147°
2026-04-26 15:59 -2.84824 37.56487 27470 ft 483 kts 148°
2026-04-26 15:59 -2.87800 37.58076 27644 ft 485 kts 153°
2026-04-26 16:00 -2.90872 37.59496 27820 ft 486 kts 155°
2026-04-26 16:00 -2.93971 37.60856 27999 ft 487 kts 155°
2026-04-26 16:00 -2.97079 37.62205 28166 ft 488 kts 155°
2026-04-26 16:00 -3.00206 37.63574 28320 ft 489 kts 155°
2026-04-26 16:01 -3.03320 37.64957 28487 ft 490 kts 155°
2026-04-26 16:01 -3.06434 37.66357 28668 ft 491 kts 155°
2026-04-26 16:01 -3.09548 37.67766 28822 ft 492 kts 155°
2026-04-26 16:01 -3.12656 37.69178 29006 ft 492 kts 155°
2026-04-26 16:02 -3.15718 37.70571 29229 ft 491 kts 155°
2026-04-26 16:02 -3.18854 37.71998 29495 ft 490 kts 155°
2026-04-26 16:02 -3.21958 37.73409 29761 ft 488 kts 155°
2026-04-26 16:02 -3.24005 37.74340 29935 ft 488 kts 155°
2026-04-26 16:03 -3.28138 37.76217 30250 ft 487 kts 155°
2026-04-26 16:03 -3.31187 37.77601 30475 ft 487 kts 155°
2026-04-26 16:03 -3.34303 37.79019 30746 ft 486 kts 155°
2026-04-26 16:03 -3.37372 37.80419 31029 ft 484 kts 154°
2026-04-26 16:04 -3.40430 37.81824 31282 ft 483 kts 155°
2026-04-26 16:04 -3.43453 37.83194 31513 ft 483 kts 155°
2026-04-26 16:04 -3.46477 37.84558 31772 ft 482 kts 155°
2026-04-26 16:04 -3.49524 37.85933 32037 ft 481 kts 155°
2026-04-26 16:05 -3.52578 37.87318 32301 ft 480 kts 154°
2026-04-26 16:05 -3.55625 37.88703 32549 ft 480 kts 154°
2026-04-26 16:05 -3.58671 37.90045 32792 ft 480 kts 158°
2026-04-26 16:05 -3.61855 37.91071 33030 ft 480 kts 164°
2026-04-26 16:06 -3.65084 37.91897 33317 ft 478 kts 165°
2026-04-26 16:06 -3.68309 37.92678 33568 ft 478 kts 165°
2026-04-26 16:06 -3.71550 37.93482 33780 ft 478 kts 164°
2026-04-26 16:06 -3.74760 37.94311 33993 ft 478 kts 163°
2026-04-26 16:07 -3.77986 37.95167 34246 ft 477 kts 163°
2026-04-26 16:07 -3.81183 37.96026 34526 ft 475 kts 162°
2026-04-26 16:07 -3.84309 37.97065 34805 ft 473 kts 158°
2026-04-26 16:07 -3.87371 37.98262 35063 ft 471 kts 156°
2026-04-26 16:08 -3.90405 37.99511 35291 ft 471 kts 155°
2026-04-26 16:08 -3.93431 38.00771 35526 ft 470 kts 155°
2026-04-26 16:08 -3.96442 38.02017 35789 ft 469 kts 156°
2026-04-26 16:08 -3.99465 38.03253 36034 ft 468 kts 156°
2026-04-26 16:09 -4.02476 38.04472 36250 ft 467 kts 156°
2026-04-26 16:09 -4.05494 38.05685 36425 ft 467 kts 156°
2026-04-26 16:09 -4.08475 38.06878 36584 ft 468 kts 156°
2026-04-26 16:09 -4.11536 38.08100 36823 ft 466 kts 156°
2026-04-26 16:10 -4.14495 38.09282 37027 ft 465 kts 156°
2026-04-26 16:10 -4.20483 38.11672 36998 ft 459 kts 156°
2026-04-26 16:11 -4.26369 38.14024 37007 ft 454 kts 156°
2026-04-26 16:11 -4.32233 38.16370 37003 ft 453 kts 156°
2026-04-26 16:12 -4.38088 38.18714 37006 ft 453 kts 156°
2026-04-26 16:12 -4.46874 38.22230 37000 ft 455 kts 156°
2026-04-26 16:13 -4.52752 38.24583 36995 ft 455 kts 156°
2026-04-26 16:13 -4.58649 38.26943 36998 ft 457 kts 156°
2026-04-26 16:14 -4.64559 38.29310 36994 ft 459 kts 156°
2026-04-26 16:15 -4.73470 38.32880 36983 ft 461 kts 156°
2026-04-26 16:15 -4.79394 38.35253 36978 ft 462 kts 156°
2026-04-26 16:16 -4.88302 38.38821 36976 ft 463 kts 156°
2026-04-26 16:16 -4.94287 38.41220 36981 ft 463 kts 156°
2026-04-26 16:17 -5.00225 38.43600 36979 ft 462 kts 156°
2026-04-26 16:17 -5.06245 38.46014 36982 ft 462 kts 156°
2026-04-26 16:18 -5.15174 38.49587 36977 ft 462 kts 156°
2026-04-26 16:19 -5.24116 38.53162 36972 ft 462 kts 156°
2026-04-26 16:20 -5.33050 38.56737 36975 ft 462 kts 156°
2026-04-26 16:20 -5.41994 38.60318 36966 ft 461 kts 156°
2026-04-26 16:21 -5.47960 38.62707 36964 ft 462 kts 156°
2026-04-26 16:21 -5.53943 38.65102 36961 ft 463 kts 156°
2026-04-26 16:22 -5.59927 38.67499 36959 ft 463 kts 156°
2026-04-26 16:22 -5.65914 38.69899 36966 ft 463 kts 156°
2026-04-26 16:23 -5.71908 38.72302 36961 ft 464 kts 156°
2026-04-26 16:23 -5.77897 38.74703 36953 ft 464 kts 156°
2026-04-26 16:24 -5.83857 38.77092 36955 ft 464 kts 156°
2026-04-26 16:24 -5.89863 38.79501 36951 ft 464 kts 156°
2026-04-26 16:25 -5.95862 38.81908 36954 ft 464 kts 156°
2026-04-26 16:25 -6.01856 38.84312 36948 ft 464 kts 157°
2026-04-26 16:26 -6.06873 38.86316 36939 ft 464 kts 156°
2026-04-26 16:26 -6.13838 38.89106 36946 ft 464 kts 156°
2026-04-26 16:27 -6.19833 38.91519 36946 ft 464 kts 156°
2026-04-26 16:27 -6.25842 38.93941 36946 ft 465 kts 156°
2026-04-26 16:28 -6.31848 38.96357 36958 ft 466 kts 156°
2026-04-26 16:28 -6.37865 38.98776 36955 ft 466 kts 156°
2026-04-26 16:29 -6.43897 39.01200 36954 ft 467 kts 156°
2026-04-26 16:29 -6.49932 39.03626 36959 ft 467 kts 156°
2026-04-26 16:30 -6.55972 39.06055 36963 ft 467 kts 157°
2026-04-26 16:30 -6.62012 39.08485 36971 ft 467 kts 157°
2026-04-26 16:31 -6.68052 39.10916 36983 ft 467 kts 157°
2026-04-26 16:31 -6.74052 39.13330 36986 ft 468 kts 157°
2026-04-26 16:32 -6.79107 39.15366 36992 ft 468 kts 157°
2026-04-26 16:32 -6.82097 39.16570 36993 ft 468 kts 157°
2026-04-26 16:33 -6.87396 39.19087 36983 ft 466 kts 144°
2026-04-26 16:33 -6.92223 39.23344 36985 ft 462 kts 128°
2026-04-26 16:34 -6.96204 39.28354 36991 ft 462 kts 126°
2026-04-26 16:34 -7.00180 39.33436 36988 ft 462 kts 127°
2026-04-26 16:35 -7.04186 39.38497 36992 ft 463 kts 127°
2026-04-26 16:35 -7.08226 39.43561 36990 ft 463 kts 127°
2026-04-26 16:36 -7.12263 39.48610 36990 ft 463 kts 127°
2026-04-26 16:36 -7.16302 39.53664 36994 ft 463 kts 127°
2026-04-26 16:37 -7.20350 39.58729 36989 ft 464 kts 127°
2026-04-26 16:37 -7.23735 39.62968 36991 ft 464 kts 127°
2026-04-26 16:38 -7.28444 39.68871 36990 ft 465 kts 127°
2026-04-26 16:38 -7.31833 39.73117 36992 ft 465 kts 127°
2026-04-26 16:39 -7.35867 39.78175 36990 ft 466 kts 127°
2026-04-26 16:39 -7.39927 39.83267 36991 ft 466 kts 127°
2026-04-26 16:40 -7.43982 39.88355 36988 ft 466 kts 127°
2026-04-26 16:40 -7.48044 39.93453 36991 ft 466 kts 127°
2026-04-26 16:41 -7.52104 39.98550 36990 ft 466 kts 127°
2026-04-26 16:41 -7.56169 40.03655 36990 ft 466 kts 127°
2026-04-26 16:42 -7.60225 40.08756 36992 ft 467 kts 127°
2026-04-26 16:42 -7.64293 40.13867 36991 ft 467 kts 127°
2026-04-26 16:43 -7.68330 40.18940 36991 ft 467 kts 127°
2026-04-26 16:43 -7.72416 40.24077 36980 ft 467 kts 127°
2026-04-26 16:44 -7.76424 40.29121 36971 ft 467 kts 127°
2026-04-26 16:44 -7.80509 40.34260 36971 ft 467 kts 127°
2026-04-26 16:45 -7.84582 40.39389 36972 ft 467 kts 127°
2026-04-26 16:45 -7.88618 40.44473 36971 ft 466 kts 127°
2026-04-26 16:46 -7.92677 40.49583 36972 ft 467 kts 127°
2026-04-26 16:46 -7.96680 40.54731 36964 ft 467 kts 126°
2026-04-26 16:47 -8.00631 40.59934 36963 ft 466 kts 126°
2026-04-26 16:47 -8.04607 40.65106 36965 ft 466 kts 127°
2026-04-26 16:48 -8.08565 40.70296 36968 ft 466 kts 126°
2026-04-26 16:48 -8.12498 40.75494 36962 ft 467 kts 126°
2026-04-26 16:49 -8.16437 40.80654 36967 ft 467 kts 126°
2026-04-26 16:49 -8.20427 40.85840 36967 ft 468 kts 127°
2026-04-26 16:50 -8.24582 40.90969 36958 ft 469 kts 128°
2026-04-26 16:50 -8.28710 40.96011 36958 ft 469 kts 128°
2026-04-26 16:51 -8.32852 41.01102 36966 ft 470 kts 128°
2026-04-26 16:51 -8.36985 41.06205 36963 ft 470 kts 128°
2026-04-26 16:52 -8.40422 41.10456 36960 ft 470 kts 128°
2026-04-26 16:52 -8.45262 41.16444 36954 ft 471 kts 128°
2026-04-26 16:53 -8.49407 41.21570 36952 ft 471 kts 128°
2026-04-26 16:53 -8.53550 41.26696 36954 ft 471 kts 128°
2026-04-26 16:54 -8.57690 41.31822 36954 ft 471 kts 128°
2026-04-26 16:54 -8.61837 41.36958 36953 ft 471 kts 128°
2026-04-26 16:55 -8.65978 41.42089 36955 ft 471 kts 128°
2026-04-26 16:55 -8.70118 41.47222 36953 ft 471 kts 128°
2026-04-26 16:56 -8.76280 41.54946 36953 ft 470 kts 127°
2026-04-26 16:57 -8.80351 41.60125 36956 ft 470 kts 127°
2026-04-26 16:57 -8.86450 41.67881 36954 ft 470 kts 127°
2026-04-26 16:58 -8.89835 41.72179 36952 ft 470 kts 127°
2026-04-26 16:59 -8.96630 41.80807 36953 ft 470 kts 127°
2026-04-26 17:00 -9.04752 41.91128 36947 ft 471 kts 127°
2026-04-26 17:00 -9.10880 41.98921 36945 ft 472 kts 127°
2026-04-26 17:01 -9.14963 42.04117 36944 ft 472 kts 127°
2026-04-26 17:01 -9.19053 42.09322 36946 ft 473 kts 127°
2026-04-26 17:02 -9.23150 42.14541 36944 ft 473 kts 127°
2026-04-26 17:02 -9.27247 42.19761 36943 ft 474 kts 127°
2026-04-26 17:03 -9.31350 42.24990 36947 ft 474 kts 127°
2026-04-26 17:03 -9.35458 42.30227 36944 ft 475 kts 127°
2026-04-26 17:04 -9.39566 42.35468 36945 ft 475 kts 127°
2026-04-26 17:04 -9.43669 42.40704 36939 ft 475 kts 127°
2026-04-26 17:05 -9.47774 42.45943 36944 ft 475 kts 127°
2026-04-26 17:05 -9.51881 42.51191 36946 ft 475 kts 127°
2026-04-26 17:06 -9.55987 42.56437 36944 ft 475 kts 127°
2026-04-26 17:06 -9.60062 42.61645 36948 ft 475 kts 127°
2026-04-26 17:07 -9.64166 42.66895 36943 ft 475 kts 127°
2026-04-26 17:07 -9.68259 42.72130 36942 ft 474 kts 127°
2026-04-26 17:08 -9.72360 42.77381 36944 ft 474 kts 127°
2026-04-26 17:08 -9.76457 42.82627 36945 ft 473 kts 127°
2026-04-26 17:09 -9.79856 42.86980 36944 ft 473 kts 127°
2026-04-26 17:09 -9.84630 42.93099 36940 ft 473 kts 127°
2026-04-26 17:10 -9.88712 42.98335 36946 ft 472 kts 127°
2026-04-26 17:10 -9.92763 43.03533 36945 ft 472 kts 127°
2026-04-26 17:11 -9.96830 43.08752 36944 ft 473 kts 127°
2026-04-26 17:11 -10.00916 43.13997 36946 ft 473 kts 127°
2026-04-26 17:12 -10.07040 43.21866 36950 ft 474 kts 127°
2026-04-26 17:13 -10.13173 43.29752 36945 ft 475 kts 127°
2026-04-26 17:14 -10.19320 43.37660 36947 ft 476 kts 127°
2026-04-26 17:14 -10.25477 43.45587 36942 ft 477 kts 127°
2026-04-26 17:15 -10.31646 43.53536 36946 ft 478 kts 127°
2026-04-26 17:16 -10.35765 43.58847 36943 ft 478 kts 127°
2026-04-26 17:16 -10.39874 43.64146 36945 ft 477 kts 127°
2026-04-26 17:17 -10.43982 43.69441 36943 ft 477 kts 127°
2026-04-26 17:17 -10.48088 43.74736 36944 ft 476 kts 127°
2026-04-26 17:18 -10.52186 43.80023 36945 ft 476 kts 127°
2026-04-26 17:18 -10.56273 43.85304 36941 ft 475 kts 127°
2026-04-26 17:19 -10.62397 43.93217 36945 ft 475 kts 127°
2026-04-26 17:19 -10.66478 43.98491 36946 ft 475 kts 127°
2026-04-26 17:20 -10.69180 44.01988 36944 ft 475 kts 127°
2026-04-26 17:20 -10.74609 44.09015 36946 ft 475 kts 127°
2026-04-26 17:21 -10.78690 44.14295 36947 ft 475 kts 127°
2026-04-26 17:21 -10.82777 44.19591 36944 ft 476 kts 127°
2026-04-26 17:22 -10.86858 44.24882 36943 ft 477 kts 127°
2026-04-26 17:22 -10.90307 44.29345 36672 ft 482 kts 128°
2026-04-26 17:23 -10.92627 44.31822 36089 ft 484 kts 139°
2026-04-26 17:23 -10.95286 44.33899 35473 ft 483 kts 147°
2026-04-26 17:23 -10.98238 44.35534 34772 ft 484 kts 155°
2026-04-26 17:23 -11.01283 44.36998 34091 ft 484 kts 155°
2026-04-26 17:24 -11.04333 44.38461 33377 ft 485 kts 155°
2026-04-26 17:24 -11.07395 44.39919 32638 ft 486 kts 155°
2026-04-26 17:24 -11.10414 44.41385 31889 ft 488 kts 155°
2026-04-26 17:24 -11.13519 44.42896 31093 ft 489 kts 155°
2026-04-26 17:25 -11.16534 44.44401 30288 ft 489 kts 155°
2026-04-26 17:25 -11.19630 44.45952 29567 ft 488 kts 155°
2026-04-26 17:25 -11.22653 44.47470 28990 ft 482 kts 155°
2026-04-26 17:25 -11.25613 44.48937 28388 ft 477 kts 155°
2026-04-26 17:26 -11.28587 44.50402 27799 ft 472 kts 155°
2026-04-26 17:26 -11.31533 44.51852 27213 ft 467 kts 156°
2026-04-26 17:26 -11.34483 44.53204 26638 ft 461 kts 155°
2026-04-26 17:26 -11.37355 44.54606 26047 ft 457 kts 153°
2026-04-26 17:27 -11.40187 44.56042 25481 ft 452 kts 153°
2026-04-26 17:27 -11.42988 44.57462 24910 ft 447 kts 152°
2026-04-26 17:27 -11.45760 44.58866 24340 ft 443 kts 152°
2026-04-26 17:27 -11.48514 44.60242 23776 ft 438 kts 151°
2026-04-26 17:28 -11.51217 44.61619 23213 ft 433 kts 152°
2026-04-26 17:28 -11.53912 44.62962 22669 ft 428 kts 152°
2026-04-26 17:28 -11.56580 44.64280 22102 ft 424 kts 152°
2026-04-26 17:28 -11.59219 44.65580 21559 ft 419 kts 153°
2026-04-26 17:29 -11.61833 44.66869 21011 ft 415 kts 153°
2026-04-26 17:29 -11.63551 44.67718 20650 ft 412 kts 153°
2026-04-26 17:29 -11.66976 44.69415 19924 ft 407 kts 153°
2026-04-26 17:29 -11.69508 44.70670 19383 ft 403 kts 153°
2026-04-26 17:30 -11.72020 44.71911 18850 ft 399 kts 153°
2026-04-26 17:30 -11.74513 44.73157 18308 ft 396 kts 153°
2026-04-26 17:30 -11.76979 44.74388 17781 ft 392 kts 153°
2026-04-26 17:30 -11.79390 44.75586 17252 ft 389 kts 153°
2026-04-26 17:31 -11.81831 44.76815 16731 ft 385 kts 153°
2026-04-26 17:31 -11.84223 44.78008 16197 ft 382 kts 154°
2026-04-26 17:31 -11.86582 44.79173 15690 ft 379 kts 154°
2026-04-26 17:31 -11.88945 44.80340 15161 ft 376 kts 154°
2026-04-26 17:32 -11.91294 44.81498 14652 ft 373 kts 154°
2026-04-26 17:32 -11.93621 44.82641 14137 ft 370 kts 154°
2026-04-26 17:32 -11.95919 44.83792 13632 ft 367 kts 154°
2026-04-26 17:32 -11.98209 44.84946 13117 ft 365 kts 154°
2026-04-26 17:33 -12.00480 44.86083 12613 ft 362 kts 154°
2026-04-26 17:33 -12.02739 44.87206 12107 ft 360 kts 154°
2026-04-26 17:33 -12.04988 44.88323 11601 ft 358 kts 154°
2026-04-26 17:34 -12.09422 44.90527 10848 ft 346 kts 154°
2026-04-26 17:34 -12.11550 44.91586 10665 ft 335 kts 154°
2026-04-26 17:34 -12.13610 44.92611 10518 ft 324 kts 154°
2026-04-26 17:34 -12.15608 44.93607 10381 ft 314 kts 154°
2026-04-26 17:35 -12.17543 44.94571 10241 ft 304 kts 154°
2026-04-26 17:35 -12.19413 44.95503 10114 ft 295 kts 154°
2026-04-26 17:35 -12.21236 44.96411 9990 ft 286 kts 154°
2026-04-26 17:35 -12.23008 44.97295 9746 ft 282 kts 154°
2026-04-26 17:36 -12.24770 44.98170 9467 ft 280 kts 154°
2026-04-26 17:36 -12.26493 44.99027 9183 ft 278 kts 154°
2026-04-26 17:36 -12.28228 44.99891 8890 ft 277 kts 154°
2026-04-26 17:36 -12.29947 45.00753 8595 ft 275 kts 154°
2026-04-26 17:37 -12.31651 45.01606 8304 ft 274 kts 154°
2026-04-26 17:37 -12.33356 45.02458 8011 ft 273 kts 154°
2026-04-26 17:37 -12.35062 45.03310 7715 ft 272 kts 154°
2026-04-26 17:38 -12.38442 45.04997 7124 ft 269 kts 154°
2026-04-26 17:38 -12.40115 45.05833 6836 ft 267 kts 154°
2026-04-26 17:38 -12.41784 45.06666 6546 ft 266 kts 154°
2026-04-26 17:38 -12.43440 45.07494 6259 ft 265 kts 154°
2026-04-26 17:39 -12.45091 45.08319 5973 ft 264 kts 154°
2026-04-26 17:39 -12.46739 45.09143 5679 ft 262 kts 154°
2026-04-26 17:39 -12.48373 45.09960 5487 ft 259 kts 154°
2026-04-26 17:39 -12.49966 45.10755 5360 ft 251 kts 154°
2026-04-26 17:40 -12.51511 45.11525 5239 ft 243 kts 156°
2026-04-26 17:40 -12.52534 45.12012 5163 ft 238 kts 153°
2026-04-26 17:40 -12.54435 45.12980 5027 ft 227 kts 154°
2026-04-26 17:40 -12.55829 45.13684 4915 ft 221 kts 154°
2026-04-26 17:41 -12.57208 45.14376 4680 ft 221 kts 154°
2026-04-26 17:41 -12.58587 45.15066 4468 ft 220 kts 154°
2026-04-26 17:41 -12.59959 45.15759 4235 ft 220 kts 153°
2026-04-26 17:41 -12.61291 45.16528 4022 ft 217 kts 150°
2026-04-26 17:42 -12.62574 45.17301 3815 ft 210 kts 151°
2026-04-26 17:42 -12.63817 45.18040 3586 ft 203 kts 151°
2026-04-26 17:42 -12.65023 45.18761 3362 ft 197 kts 151°
2026-04-26 17:42 -12.66190 45.19456 3134 ft 191 kts 152°
2026-04-26 17:43 -12.67313 45.20123 2957 ft 183 kts 152°
2026-04-26 17:43 -12.68397 45.20766 2739 ft 178 kts 151°
2026-04-26 17:43 -12.69446 45.21391 2483 ft 169 kts 152°
2026-04-26 17:43 -12.70439 45.21981 2275 ft 161 kts 151°
2026-04-26 17:44 -12.71373 45.22538 2100 ft 148 kts 151°
2026-04-26 17:44 -12.72238 45.23052 1929 ft 142 kts 151°
2026-04-26 17:44 -12.73107 45.23567 1699 ft 143 kts 151°
2026-04-26 17:44 -12.73958 45.24072 1499 ft 139 kts 151°
2026-04-26 17:45 -12.74791 45.24567 1325 ft 139 kts 150°
2026-04-26 17:45 -12.75631 45.25068 1143 ft 140 kts 151°
2026-04-26 17:45 -12.76471 45.25567 952 ft 139 kts 151°
2026-04-26 17:45 -12.77296 45.26055 770 ft 138 kts 152°
2026-04-26 17:46 -12.78136 45.26521 594 ft 137 kts 152°
2026-04-26 17:46 -12.78952 45.27010 370 ft 135 kts 148°
2026-04-26 17:46 -12.79722 45.27500 227 ft 131 kts 150°
2026-04-26 17:46 -12.80368 45.27877 63 ft 131 kts 150°
2026-04-26 17:47 -12.80614 45.28020 44 ft 127 kts 150°
2026-04-26 17:47 -12.80711 45.28077 43 ft 110 kts 150°
2026-04-26 17:47 -12.80898 45.28192 47 ft 68 kts 146°
2026-04-26 17:47 -12.80973 45.28243 48 ft 17 kts 146°
2026-04-26 17:48 -12.81056 45.28297 47 ft 12 kts 151°
2026-04-26 17:48 -12.81113 45.28329 52 ft 8 kts 150°
2026-04-26 17:48 -12.81145 45.28348 56 ft 0 kts 151°
2026-04-26 17:49 -12.81146 45.28348 59 ft 0 kts 151°
2026-04-26 17:49 -12.81158 45.28355 59 ft 9 kts 151°
2026-04-26 17:50 -12.81251 45.28408 55 ft 18 kts 151°
2026-04-26 17:50 -12.81361 45.28471 60 ft 19 kts 150°
2026-04-26 17:50 -12.81481 45.28540 65 ft 21 kts 151°
2026-04-26 17:50 -12.81605 45.28605 63 ft 18 kts 173°
2026-04-26 17:51 -12.81670 45.28634 67 ft 2 kts 81°
2026-04-26 17:51 -12.81647 45.28636 69 ft 5 kts 346°
2026-04-26 17:51 -12.81579 45.28598 59 ft 18 kts 329°
2026-04-26 17:51 -12.81437 45.28513 64 ft 30 kts 330°
2026-04-26 17:52 -12.81222 45.28386 61 ft 41 kts 330°
2026-04-26 17:52 -12.80947 45.28224 50 ft 51 kts 330°
2026-04-26 17:52 -12.80638 45.28040 45 ft 39 kts 330°
2026-04-26 17:52 -12.80484 45.27963 44 ft 16 kts
2026-04-26 17:53 -12.80416 45.28041 45 ft 15 kts 61°
2026-04-26 17:53 -12.80382 45.28126 46 ft 8 kts 92°
2026-04-26 17:53 -12.80396 45.28168 44 ft 5 kts 111°
2026-04-26 17:54 -12.80387 45.28188 46 ft 5 kts 45°
2026-04-26 17:54 -12.80356 45.28207 44 ft 4 kts 31°
2026-04-26 17:54 -12.80355 45.28207 44 ft 1 kts 31°
2026-04-26 17:54 -12.80352 45.28209 46 ft 0 kts 31°